Probability
0 0 0 0 0 0 0 0 0 0 0 0 0 0 0 0 0 0 0 0 0 0 0 0 0 0 0 0 0 0 0 0 0 0 0 0 0 0 0 0 0 0 0
0 0 0 0 0 0 0 0 0 0 0 0 0 0 0 0 0 0 0 0 0 0 0 0 0 0 0 0 0 0 0 0 0 0 0 0 0 0 0 0 0 0 0
0 0 0 0 0 0 0 0 0 0 0 0 0 0 0 0 0 0 0 0 0 0 0 0 0 0 0 0 0 0 0 0 0 0 0 0 0 0 0 0 0 0 0
0 0 0 0 0 0 0 0 0 0 0 0 0 0 0 0 0 0 0 0 0 0 0 0 0 0 0 0 0 0 0 0 0 0 0 0 0 0 0 0 0 0 0
0 0 0 0 0 0 0 0 0 0 0 0 0 0 0 0 0 0 0 0 0 0 0 0 0 0 0 0 0 0 0 0 0 0 0 0 0 0 0 0 0 0 0
0 0 0 0 0 0 0 0 0 0 0 0 0 0 0 0 0 0 0 0 0 0 0 0 0 0 0 0 0 0 0 0 0 0 0 0 0 0 0 0 0 0 0
0 0 0 0 0 0 0 0 0 0 0 0 0 0 0 0 0 0 0 0 0 0 0 0 0 0 0 0 0 0 0 0 0 0 0 0 0 0 0 0 0 0 0
0 0 0 0 0 0 0 0 0 0 0 0 0 0 0 0 0 0 0 0 0 0 0 0 0 0 0 0 0 0 0 0 0 0 0 0 0 0 0 0 0 0 0
0 0 0 0 0 0 0 0 0 0 0 0 0 0 0 0 0 0 0 0 0 0 0 0 0 0 0 0 0 0 0 0 0 0 0 0 0 0 0 0 0 0 0
0 0 0 0 0 0 0 0 0 0 0 0 0 0 0 0 0 0 0 0 0 0 0 0 0 0 0 0 0 0 0 0 0 0 0 0 0 0 0 0 0 0 0
0 0 0 0 0 0 0 0 0 0 0 0 0 0 0 0 0 0 0 0 0 0 0 0 0 0 0 0 0 0 0 0 0 0 0 0 0 0 0 0 0 0 0
0 0 0 0 0 0 0 0 0 0 0 0 0 0 0 0 0 0 0 0 0 0 0 0 0 0 0 0 0 0 0 0 0 0 0 0 0 0 0 0 0 0 0
0 0 0 0 0 0 0 0 0 0 0 0 0 0 0 0 0 0 0 0 0 0 0 0 0 0 0 0 0 0 0 0 0 0 0 0 0 0 0 0 0 0 0
0 0 0 0 0 0 0 0 0 0 0 0 0 0 0 0 0 0 0 0 0 0 0 0 0 0 0 0 0 0 0 0 0 0 0 0 0 0 0 0 0 0 0
0 0 0 0 0 0 0 0 0 0 0 0 0 0 0 0 0 0 0 0 0 0 0 0 0 0 0 0 0 0 0 0 0 0 0 0 0 0 0 0 0 0 0
0 0 0 0 0 0 0 0 0 0 0 0 0 0 0 0 0 0 0 0 0 0 0 0 0 0 0 0 0 0 0 0 0 0 0 0 0 0 0 0 0 0 0
0 0 0 0 0 0 0 0 0 0 0 0 0 0 0 0 0 0 0 0 0 0 0 0 0 0 0 0 0 0 0 0 0 0 0 0 0 0 0 0 0 0 0
0 0 0 0 0 0 0 0 0 0 0 0 0 0 0 0 0 0 0 0 0 0 0 0 0 0 0 0 0 0 0 0 0 0 0 0 0 0 0 0 0 0 0
0 0 0 0 0 0 0 0 0 0 0 0 0 0 0 0 0 0 0 0 0 0 0 0 0 0 0 0 0 0 0 0 0 0 0 0 0 0 0 0 0 0 0
0 0 0 0 0 0 0 0 0 0 0 0 0 0 0 0 0 0 0 0 0 0 0 0 0 0 0 0 0 0 0 0 0 0 0 0 0 0 0 0 0 0 0
0 0 0 0 0 0 0 0 0 0 0 0 0 0 0 0 0 0 0 0 0 0 0 0 0 0 0 0 0 0 0 0 0 0 0 0 0 0 0 0 0 0 0
0 0 0 0 0 0 0 0 0 0 0 0 0 0 0 0 0 0 0 0 0 0 0 0 0 0 0 0 0 0 0 0 0 0 0 0 0 0 0 0 0 0 0
0 0 0 0 0 0 0 0 0 0 0 0 0 0 0 0 0 0 0 0 0 0 0 0 0 0 0 0 0 0 0 0 0 0 0 0 0 0 0 0 0 0 0
0 0 0 0 0 0 0 0 0 0 0 0 0 0 0 0 0 0 0 0 0 0 0 0 0 0 0 0 0 0 0 0 0 0 0 0 0 0 0 0 0 0 0
0 0 0 0 0 0 0 0 0 0 0 0 0 0 0 0 0 0 0 0 0 0 0 0 0 0 0 0 0 0 0 0 0 0 0 0 0 0 0 0 0 0 0
0 0 0 0 0 0 0 0 0 0 0 0 0 0 0 0 0 0 0 0 0 0 0 0 0 0 0 0 0 0 0 0 0 0 0 0 0 0 0 0 0 0 0
Height
5826 5828 5829 5830 5832 5833 5834 5835 5837 5838 5840 5841 5842 5843 5844 5844 5845 5846 5846 5847 5847 5847 5847 5847 5847 5847 5847 5847 5846 5846 5845 5845 5844 5843 5841 5840 5838 5837 5835 5834 5834 5833 5831
5824 5825 5827 5828 5830 5831 5832 5834 5835 5837 5838 5840 5841 5842 5842 5843 5844 5844 5845 5845 5846 5846 5846 5846 5846 5846 5845 5845 5845 5844 5843 5843 5842 5841 5840 5838 5837 5835 5834 5833 5831 5830 5829
5822 5823 5824 5826 5827 5829 5830 5832 5833 5835 5836 5838 5839 5840 5841 5842 5842 5843 5844 5844 5844 5844 5844 5844 5844 5844 5844 5843 5843 5842 5842 5841 5840 5839 5838 5836 5835 5834 5832 5831 5830 5828 5827
5820 5821 5822 5823 5825 5826 5828 5829 5831 5833 5834 5836 5837 5838 5839 5840 5841 5841 5842 5842 5843 5843 5843 5843 5843 5842 5842 5842 5841 5841 5840 5839 5838 5837 5836 5834 5833 5832 5830 5829 5827 5826 5824
5817 5818 5820 5821 5823 5824 5825 5827 5829 5830 5832 5834 5835 5836 5837 5838 5839 5839 5840 5841 5841 5841 5841 5841 5841 5840 5840 5840 5839 5838 5838 5837 5836 5835 5833 5832 5831 5829 5828 5826 5824 5822 5820
5815 5816 5817 5819 5820 5822 5823 5825 5826 5828 5830 5831 5833 5834 5835 5836 5837 5837 5838 5839 5839 5839 5839 5839 5839 5838 5838 5837 5837 5836 5835 5834 5833 5832 5831 5829 5828 5826 5824 5823 5821 5819 5817
5813 5814 5815 5817 5818 5819 5821 5822 5824 5825 5827 5829 5830 5831 5832 5833 5834 5835 5836 5836 5837 5837 5837 5836 5836 5836 5835 5835 5834 5833 5832 5831 5831 5829 5828 5826 5824 5823 5821 5819 5817 5815 5813
5810 5812 5813 5814 5816 5817 5818 5820 5821 5823 5824 5826 5827 5828 5829 5830 5831 5832 5833 5833 5834 5834 5834 5834 5833 5833 5832 5832 5831 5830 5829 5828 5827 5825 5824 5822 5820 5818 5817 5815 5813 5810 5808
5808 5809 5811 5812 5813 5814 5816 5817 5818 5820 5821 5823 5824 5825 5826 5827 5828 5829 5829 5830 5830 5831 5831 5830 5830 5829 5829 5828 5827 5827 5825 5824 5823 5821 5819 5818 5816 5814 5812 5810 5808 5805 5803
5805 5806 5807 5809 5810 5812 5813 5814 5816 5817 5818 5819 5820 5822 5823 5824 5824 5825 5826 5827 5827 5827 5827 5827 5826 5825 5825 5824 5823 5822 5821 5820 5818 5816 5815 5813 5811 5809 5807 5804 5802 5799 5797
5802 5803 5804 5805 5807 5808 5810 5811 5812 5813 5814 5815 5817 5818 5819 5820 5821 5821 5822 5823 5823 5823 5823 5822 5822 5821 5820 5819 5819 5817 5816 5815 5813 5811 5809 5808 5806 5803 5801 5799 5796 5793 5790
5798 5800 5801 5802 5803 5805 5806 5807 5809 5810 5811 5812 5813 5814 5815 5816 5817 5817 5818 5818 5818 5819 5818 5818 5817 5816 5816 5815 5813 5812 5811 5809 5808 5806 5804 5802 5800 5798 5795 5792 5790 5787 5783
5795 5796 5797 5798 5799 5801 5802 5804 5805 5806 5807 5808 5809 5810 5811 5811 5812 5812 5813 5813 5814 5814 5813 5813 5812 5812 5811 5810 5808 5807 5805 5804 5802 5800 5799 5796 5794 5792 5789 5786 5783 5780 5776
5791 5792 5793 5795 5796 5797 5798 5800 5801 5802 5803 5804 5805 5805 5806 5807 5807 5808 5808 5808 5809 5809 5808 5808 5807 5806 5805 5804 5803 5801 5800 5798 5796 5795 5793 5790 5788 5785 5782 5779 5776 5772 5769
5787 5788 5789 5790 5791 5793 5794 5795 5796 5797 5798 5800 5800 5801 5801 5802 5802 5803 5803 5803 5803 5804 5803 5803 5802 5801 5800 5799 5797 5796 5794 5792 5790 5788 5786 5784 5781 5778 5775 5772 5769 5765 5761
5782 5783 5785 5786 5787 5788 5789 5791 5791 5793 5794 5794 5795 5796 5796 5797 5797 5797 5798 5798 5798 5798 5798 5797 5796 5795 5794 5793 5792 5790 5788 5786 5784 5782 5780 5777 5774 5771 5768 5765 5761 5757 5753
5777 5778 5780 5781 5783 5784 5785 5786 5787 5788 5789 5789 5790 5791 5791 5791 5791 5791 5792 5792 5792 5792 5792 5791 5790 5789 5788 5787 5786 5784 5782 5780 5778 5776 5773 5770 5767 5764 5760 5757 5753 5749 5745
5772 5773 5775 5776 5778 5779 5780 5781 5782 5783 5784 5784 5785 5785 5785 5785 5786 5786 5786 5786 5786 5786 5785 5785 5784 5783 5782 5781 5779 5777 5776 5773 5771 5769 5766 5763 5760 5756 5753 5749 5745 5741 5736
5767 5768 5769 5771 5772 5773 5774 5775 5776 5777 5778 5779 5779 5779 5779 5779 5779 5780 5780 5780 5780 5779 5779 5778 5777 5776 5775 5774 5772 5771 5769 5766 5764 5761 5758 5755 5752 5748 5744 5740 5736 5732 5727
5761 5762 5764 5765 5767 5768 5769 5770 5770 5771 5772 5772 5773 5773 5773 5773 5773 5773 5773 5773 5773 5772 5772 5771 5770 5769 5768 5767 5765 5763 5761 5759 5756 5753 5750 5747 5743 5740 5736 5732 5727 5722 5717
5754 5756 5758 5759 5760 5762 5763 5764 5764 5765 5765 5766 5766 5766 5766 5766 5766 5766 5766 5766 5766 5765 5764 5764 5763 5762 5761 5759 5757 5755 5753 5750 5748 5745 5742 5738 5735 5731 5727 5722 5718 5713 5707
5748 5749 5751 5753 5754 5755 5756 5757 5757 5758 5759 5759 5759 5759 5759 5759 5759 5759 5759 5758 5758 5758 5757 5756 5755 5754 5753 5751 5749 5747 5745 5742 5739 5736 5733 5730 5726 5722 5718 5713 5708 5702 5697
5741 5742 5744 5745 5747 5748 5749 5750 5750 5751 5752 5752 5752 5752 5752 5752 5752 5752 5752 5751 5751 5750 5749 5748 5747 5746 5745 5743 5741 5739 5736 5734 5731 5727 5724 5720 5717 5712 5708 5703 5698 5692 5686
5733 5734 5736 5737 5739 5740 5741 5742 5743 5744 5744 5744 5745 5745 5745 5745 5745 5744 5744 5744 5743 5743 5742 5741 5740 5738 5736 5734 5732 5730 5727 5725 5722 5718 5715 5711 5707 5703 5698 5693 5687 5682 5676
5725 5726 5728 5729 5731 5732 5733 5734 5735 5736 5736 5736 5737 5737 5737 5737 5737 5737 5737 5736 5735 5735 5734 5733 5731 5730 5728 5726 5724 5721 5719 5716 5712 5709 5705 5701 5697 5693 5688 5683 5677 5671 5666
5716 5718 5720 5721 5722 5723 5724 5725 5726 5727 5727 5728 5728 5728 5728 5728 5729 5729 5728 5728 5727 5726 5725 5724 5723 5721 5719 5717 5714 5712 5709 5706 5703 5699 5696 5691 5687 5682 5678 5672 5667 5661 5656
Wind_Speed
10 10 10 10 10 10 10 10 10 9 8 8 8 7 7 6 6 6 6 6 5 5 5 5 5 5 6 6 6 7 7 7 8 9 9 9 10 10 9 10 10 11 11
10 11 11 11 11 11 11 11 11 10 10 9 8 8 7 7 6 6 6 6 6 5 5 5 6 6 6 6 7 7 8 8 9 9 9 9 10 10 10 10 10 11 11
10 11 11 12 12 12 12 12 11 11 11 10 10 9 8 8 7 7 7 6 6 6 6 6 6 7 7 7 7 7 8 8 8 9 9 10 10 10 10 11 11 12 12
10 11 11 12 12 12 12 12 12 12 12 11 11 10 9 8 8 8 7 7 7 7 7 7 7 7 7 8 8 9 9 9 9 10 10 11 11 11 12 13 13 13 15
10 11 11 12 12 12 12 12 12 12 12 11 12 11 10 9 9 9 9 8 7 7 7 8 8 8 8 9 9 10 10 10 10 11 11 11 12 13 13 14 15 16 16
9 10 11 11 12 11 12 12 12 13 12 12 12 12 12 11 10 10 10 9 9 8 8 9 9 9 9 10 10 10 10 11 11 12 12 13 14 14 15 15 16 17 18
10 11 11 11 11 11 11 12 12 13 13 12 12 12 12 12 11 11 10 10 11 11 10 11 11 10 11 11 11 12 12 13 13 14 14 14 15 16 16 16 17 18 19
12 12 12 12 11 11 12 13 13 13 13 13 13 13 13 13 13 13 13 12 12 12 12 13 13 13 13 13 13 14 14 15 15 16 16 17 17 17 17 18 19 20 21
12 13 13 13 12 12 12 13 13 13 13 13 14 14 13 13 14 13 13 13 13 13 13 14 14 14 14 15 15 15 16 16 17 17 18 18 18 19 20 21 22 23 23
13 14 14 14 14 13 12 13 14 14 14 14 14 13 14 14 14 14 14 14 14 14 14 15 16 16 16 16 16 17 17 18 19 19 19 19 20 21 22 23 23 24 25
14 14 14 14 14 14 14 14 14 15 14 14 14 14 15 15 15 15 16 16 16 16 16 16 16 17 17 17 17 18 19 19 20 20 20 21 21 22 23 24 25 26 26
14 14 15 15 15 14 14 14 15 16 15 15 15 16 16 16 17 17 17 17 17 17 17 17 17 17 17 18 18 19 20 20 20 20 21 21 22 23 24 25 26 27 28
13 14 14 15 15 15 15 15 15 15 16 16 16 16 16 17 17 17 17 17 17 17 17 17 18 18 18 18 19 20 20 20 21 21 22 23 24 25 26 27 28 28 29
14 14 14 15 15 16 16 16 15 15 16 16 16 16 16 17 17 17 17 17 17 17 18 18 18 18 18 18 19 20 20 21 22 23 23 25 25 26 26 28 29 30 31
16 16 16 16 16 16 16 16 16 17 17 16 16 16 17 17 17 17 17 17 18 18 19 19 19 18 19 19 20 21 22 22 23 23 24 25 26 26 27 28 30 31 32
17 16 16 17 17 16 16 17 16 17 17 17 17 17 17 18 18 18 18 18 18 19 19 19 19 19 20 20 21 22 22 23 23 24 25 26 27 28 29 30 31 32 33
17 17 17 16 17 17 17 17 17 17 17 17 18 18 18 18 19 19 19 19 19 20 20 20 20 21 21 22 22 23 23 23 24 25 26 27 28 29 31 32 33 34 35
18 18 18 17 17 17 17 18 18 18 19 19 19 19 19 20 20 20 20 21 21 21 21 21 22 22 22 23 23 23 23 24 25 26 27 28 30 31 32 33 34 35 36
20 20 19 19 19 19 18 19 19 20 20 20 20 20 20 21 21 21 21 22 22 22 22 22 23 23 23 23 23 24 25 26 27 28 29 31 31 32 33 34 35 37 38
22 22 21 21 20 20 20 20 20 21 21 21 21 21 21 22 22 22 23 23 23 22 22 23 23 24 24 25 25 26 27 28 29 30 31 32 32 33 34 36 37 38 39
22 22 22 22 22 21 21 21 21 21 22 22 23 23 23 23 22 23 23 23 23 23 23 23 23 24 25 26 26 27 28 29 30 31 32 32 33 34 36 38 39 40 41
24 23 23 23 23 22 22 23 22 22 22 22 22 23 23 23 23 22 23 23 23 23 23 23 23 25 26 27 27 28 29 30 31 32 33 33 34 36 37 39 40 41 43
25 25 25 25 24 24 24 24 24 23 23 23 23 23 23 23 23 23 23 23 22 23 24 24 25 25 26 27 28 29 30 30 31 32 34 34 35 37 39 40 41 42 43
26 26 25 25 25 25 25 25 24 24 24 24 24 24 24 24 24 24 24 24 24 24 25 25 26 26 27 28 29 29 30 31 32 33 34 35 36 38 39 41 42 42 42
26 25 26 26 26 26 26 26 26 26 26 26 26 26 26 25 25 25 25 25 25 25 26 26 27 28 29 29 30 31 32 33 33 34 35 36 37 39 40 41 41 42 42
26 26 27 27 27 27 28 28 28 28 28 28 28 27 27 27 27 27 27 27 27 28 28 29 29 30 31 31 31 31 32 34 35 35 36 38 39 39 40 40 41 41 43
Wind_Direction
224 227 229 231 229 226 225 224 224 221 222 225 223 225 229 231 232 238 243 248 254 259 262 268 274 278 281 285 293 299 303 306 314 321 324 325 326 325 322 323 323 322 321
226 231 232 232 231 231 228 227 226 226 227 227 224 226 233 237 235 237 244 250 256 257 260 270 276 279 283 286 291 296 301 304 309 315 317 319 321 320 322 324 321 320 319
230 230 233 235 233 232 232 228 226 228 231 232 229 232 239 240 238 240 246 252 258 261 266 273 279 282 288 291 295 299 302 306 308 312 315 318 319 319 318 319 317 316 318
232 231 232 231 229 232 234 228 229 232 234 235 234 233 238 241 243 246 249 254 257 265 270 274 283 287 290 293 298 300 302 303 306 309 313 316 316 315 314 315 314 313 315
238 235 234 230 228 232 231 227 228 229 231 234 237 237 238 239 242 246 249 254 261 269 273 276 282 287 289 292 296 298 300 302 304 306 309 311 313 314 314 314 313 313 315
238 234 230 230 228 229 231 232 230 231 233 238 240 240 240 242 245 252 255 257 264 271 277 281 287 287 286 289 292 296 301 304 305 304 306 308 309 311 312 311 311 312 313
235 232 230 230 228 230 233 232 231 231 233 237 240 241 242 244 247 251 256 261 266 271 276 281 286 288 289 290 292 295 298 301 302 302 304 306 308 309 310 309 308 309 310
234 233 233 232 232 234 234 232 234 234 236 240 244 247 248 249 251 254 259 264 268 271 273 277 282 286 288 290 293 295 297 299 301 301 302 303 305 307 309 308 307 307 307
236 236 237 236 235 236 237 237 238 238 240 242 245 247 248 252 254 258 263 263 266 271 276 280 282 284 287 289 291 293 295 298 299 299 300 301 302 304 306 306 307 308 307
241 240 239 238 238 238 239 240 240 241 242 244 245 248 251 252 255 259 264 266 269 272 276 280 283 283 284 287 289 291 293 295 296 297 297 298 299 301 304 306 307 308 309
241 240 239 240 238 238 241 243 242 243 246 248 248 251 254 255 258 261 265 266 269 273 276 279 281 284 287 287 288 290 292 293 294 296 296 297 299 301 303 305 307 308 309
242 243 244 243 241 242 244 245 246 246 248 251 253 256 256 257 259 262 265 266 267 271 276 279 282 285 287 288 289 291 293 293 294 296 297 299 301 302 303 305 307 308 308
246 247 246 245 245 245 246 246 248 249 250 253 256 257 257 258 260 264 267 267 267 272 276 280 283 287 288 288 290 293 294 293 294 295 298 299 301 303 304 306 307 308 308
251 253 250 247 247 246 248 248 249 251 252 254 256 257 259 260 263 264 266 268 271 273 275 279 283 287 288 289 291 292 293 293 294 296 298 300 301 303 305 307 308 308 309
251 254 255 251 249 248 250 251 252 252 253 253 255 259 263 264 265 265 268 269 272 276 276 278 281 285 287 290 292 293 293 295 296 296 298 301 302 304 306 307 308 308 309
251 253 255 254 250 249 250 250 251 252 252 253 256 260 264 266 266 266 268 269 272 276 278 279 281 284 286 288 292 294 295 295 296 297 299 302 303 305 306 307 308 309 310
251 251 253 252 250 249 250 251 252 253 256 257 260 262 264 266 266 265 267 268 271 275 277 279 281 283 286 288 291 295 296 296 297 299 301 303 304 306 306 307 308 309 310
249 251 252 253 252 252 254 253 254 256 259 261 263 264 263 264 266 267 268 269 270 273 277 279 281 283 285 287 291 294 295 296 297 299 301 303 304 305 306 307 308 309 310
249 250 251 253 254 256 258 258 258 258 259 260 263 265 266 266 267 268 269 270 271 274 276 279 280 282 285 287 290 293 294 296 297 299 300 301 302 304 305 307 308 309 310
249 249 250 252 254 255 257 259 260 260 259 260 262 264 265 266 268 268 270 270 271 273 276 279 281 284 286 289 291 292 293 296 298 299 300 300 301 303 305 307 309 309 310
249 249 250 252 254 256 257 259 261 261 261 263 265 265 266 267 268 270 271 271 272 276 278 278 281 284 287 289 292 293 295 297 298 299 299 301 302 304 306 307 309 310 311
250 251 251 252 254 255 256 259 260 260 262 265 266 266 267 268 269 270 272 273 274 276 278 279 281 285 288 290 292 294 296 298 299 300 300 301 303 304 306 308 309 310 311
249 251 252 253 254 255 256 258 259 261 264 265 267 267 266 269 271 272 274 274 276 277 278 280 282 285 288 291 292 294 296 297 298 299 301 303 304 305 307 308 309 310 311
249 250 252 254 254 256 257 258 259 261 264 266 266 266 267 269 271 272 273 273 275 278 280 283 284 286 289 290 292 295 296 297 298 299 301 304 305 306 307 308 310 311 312
249 251 253 255 256 256 257 258 260 261 263 265 267 266 265 266 269 271 273 275 277 280 281 283 285 288 291 293 294 295 296 297 299 300 302 304 305 307 308 309 311 312 313
250 251 254 256 258 259 259 259 260 261 263 264 266 266 266 266 268 270 273 275 278 280 282 284 287 288 290 292 293 294 296 297 299 300 301 303 305 307 308 310 311 312 313